Location: Châteauvieux
(47.2310°N, 1.3828°E)
Time: 03:38:38
(UTC+00:00)

Cosmos 2151 - Pass Details

Date: 15 May 2026
Orbit: 556 x 575 km, 82.5° (Epoch: 8 June)

Event Time Altitude Azimuth Distance (km) Brightness Sun altitude
Rises 20:50:01 0° 352° (N) 2,773 7.4 -12.3°
Reaches altitude 10° 20:52:13 10° 354° (N) 1,868 6.4 -12.5°
Maximum altitude 20:56:20 77° 80° (E) 582 2.8 -13.0°
Enters shadow 20:59:14 19° 165° (SSE) 1,375 4.3 -13.3°
